Regional Weather Roundup
Issued by NWS San Angelo, TX

Home | Current Version | Previous Version | Text Only | Print | Product List | Glossary On
Versions: 1 2 3 4 5 6 7 8 9 10 11 12 13 14 15 16 17 18 19 20 21 22 23 24 25 26 27 28 29 30 31 32 33 34 35 36 37 38 39 40 41 42 43 44 45 46 47 48 49 50
000
ASUS44 KSJT 030902
RWRSJT
WEST CENTRAL TEXAS REGIONAL WEATHER ROUNDUP
NATIONAL WEATHER SERVICE SAN ANGELO TX
400 AM CDT SUN MAY 03 2015

NOTE: "FAIR" INDICATES FEW OR NO CLOUDS BELOW 12,000 FEET WITH NO
SIGNIFICANT WEATHER AND/OR OBSTRUCTIONS TO VISIBILITY.

TXZ049-054-064>066-071>073-076>078-098-099-113-114-127-128-139-140-
154-155-168>170-031000
...LOCATIONS ACROSS WEST CENTRAL TEXAS...

CITY           SKY/WX    TMP DP  RH WIND       PRES   REMARKS
SAN ANGELO     CLEAR     63  50  62 S10       29.95F
ABILENE        CLEAR     61  51  70 S10       29.95F
DYESS AFB      CLEAR     62  52  69 S10       29.93F
JUNCTION       PTCLDY    61  55  81 CALM      29.99F
SWEETWATER     CLEAR     62  49  61 S12       29.96F
BROWNWOOD      NOT AVBL
COLEMAN        NOT AVBL
SONORA         NOT AVBL
OZONA          NOT AVBL
BRADY          CLEAR     59  54  82 SE9       29.98F
$$

TEXAS PANHANDLE/OKLAHOMA PANHANDLE

CITY           SKY/WX    TMP DP  RH WIND       PRES   REMARKS
AMARILLO       CLOUDY    64  42  44 S16       29.92F
BORGER         CLOUDY    69  42  37 S16G23    29.88F
CANADIAN       NOT AVBL
DALHART        MOCLDY    58  43  57 W8        29.93F
DUMAS          NOT AVBL
GUYMON         NOT AVBL
HEREFORD       NOT AVBL
PAMPA          NOT AVBL
PERRYTON       NOT AVBL
$$

SOUTHERN PANHANDLE/SOUTH PLAINS/ROLLING PLAINS

CITY           SKY/WX    TMP DP  RH WIND       PRES   REMARKS
LUBBOCK        MOCLDY    60  44  55 SW12      29.97F
SNYDER         NOT AVBL
CHILDRESS      MOCLDY    62  52  69 SW9       29.93S
SEMINOLE       NOT AVBL
$$

PERMIAN BASIN

CITY           SKY/WX    TMP DP  RH WIND       PRES   REMARKS
MIDLAND        CLEAR     63  46  54 S12       29.93F
ODESSA         CLEAR     63  44  50 S15       29.93F
WINK           CLEAR     58  43  57 SE6       29.92R
$$

FAR WEST/SOUTHWEST MOUNTAINS/TRANS PECOS

CITY           SKY/WX    TMP DP  RH WIND       PRES   REMARKS
ALPINE         NOT AVBL
DRYDEN           N/A     62  49  62 CALM      29.94S
EL PASO        MOCLDY    74  37  26 NW10      29.96S
FORT STOCKTON  PTCLDY    63  45  51 SE16      29.93S
GUADALUPE PASS NOT AVBL
MARFA          MOCLDY    57  46  67 CALM      30.05S
PECOS          NOT AVBL
$$

DALLAS/FORT WORTH METROPLEX

CITY           SKY/WX    TMP DP  RH WIND       PRES   REMARKS
DFW AIRPORT    CLEAR     65  55  70 S10       29.97R
FTW MEACHAM    CLEAR     65  55  70 S10       29.96S
DAL-EXECUTIVE  CLEAR     65  55  70 S6        29.97S
GRAND PRAIRIE  CLEAR     64  57  79 S7        30.00R
ADDISON        CLEAR     69  55  61 S8        29.99S
MESQUITE       SUNNY     59  56  91 S5        29.99S
LANCASTER      SUNNY     61  55  78 SW5       30.00R
$$

NORTH CENTRAL TEXAS

CITY           SKY/WX    TMP DP  RH WIND       PRES   REMARKS
SHRMAN/DENISON SUNNY     62  59  88 S6        29.98S
GAINESVILLE    NOT AVBL
BRIDGEPORT     SUNNY     65  55  72 S7        29.98S
DENTON         CLEAR     61  55  81 S7        29.96S
WAXAHACHIE     SUNNY     61  56  84 S5        30.00S
GRANBURY       PTSUNNY   63  55  75 S6        29.99S
$$

WESTERN NORTH TEXAS

CITY           SKY/WX    TMP DP  RH WIND       PRES   REMARKS
WICHITA FALLS  CLEAR     61  54  77 S12       29.93S
VERNON         NOT AVBL
BRECKENRIDGE   MOSUNNY   64  52  63 S9        29.95F
COMANCHE       CLEAR     62  56  81 S10       29.99R
$$

CENTRAL AND SOUTH CENTRAL TEXAS

CITY           SKY/WX    TMP DP  RH WIND       PRES   REMARKS
AUSTIN/BERGSTM CLEAR     53  53 100 CALM      30.00F
WACO           CLEAR     61  55  81 S9        29.99F
HILLSBORO      NOT AVBL
TEMPLE         CLEAR     57  50  77 S7        29.99F
KILLEEN-GRAY   CLEAR     61  56  82 VRB5      29.99F
FORT HOOD        N/A    N/A N/A N/A SW8         N/A
GEORGETOWN     CLEAR     57  55  94 CALM      30.00F
LAGO VISTA     FAIR      63  56  77 SW6       30.01F
SAN MARCOS     CLEAR     57  54  88 SW5       30.01F
NEW BRAUNFELS  CLEAR     60  57  89 W3        29.99F
RANDOLPH AFB   PTCLDY    58  57  96 N5        30.00F
SAN ANTONIO    MOCLDY    64  58  80 E3        30.00F
STINSON        MOCLDY    62  58  86 CALM      29.98F
PLEASANTON     NOT AVBL
LA GRANGE      NOT AVBL
GIDDINGS       SUNNY     55  54  94 CALM      30.05S
$$

EAST TEXAS

CITY           SKY/WX    TMP DP  RH WIND       PRES   REMARKS
PARIS          CLEAR     59  52  77 MISG      29.99S
CLARKSVILLE    NOT AVBL
TYLER          CLEAR     64  56  75 S7        30.00F
LONGVIEW       CLEAR     61  56  83 S5        30.00S
PALESTINE      SUNNY     59  57  95 CALM      30.03S
NACOGDOCHES      N/A     55  54  94 CALM      30.02S
$$

TEXAS HILL COUNTRY AND EDWARDS PLATEAU

CITY           SKY/WX    TMP DP  RH WIND       PRES   REMARKS
LLANO          NOT AVBL
HORSESHOE BAY  FAIR      61  57  86 S7        30.00F
KERRVILLE      NOT AVBL
FREDERICKSBRG  NOT AVBL
ROCKSPRINGS    NOT AVBL
HONDO          CLEAR     59  57  93 E6        30.01F
UVALDE         MOSUNNY   59  58  97 NE6       29.99S
DEL RIO        PTCLDY    65  59  81 E10       29.94S
$$

SOUTHEAST TEXAS

CITY           SKY/WX    TMP DP  RH WIND       PRES   REMARKS
COLLEGE STN    CLEAR     59  55  87 CALM      30.02S
CALDWELL       NOT AVBL
CROCKETT       NOT AVBL
BRENHAM        CLEAR     59  58  94 CALM      30.02S
HUNTSVILLE     CLEAR     61  56  83 S5        30.02S
CONROE         CLEAR     53  51  93 CALM      30.03R
HOUSTON BUSH   PTCLDY    59  57  93 CALM      30.02S
HOUSTON HOBBY  PTCLDY    61  58  90 S3        30.01S
PERLAND        CLEAR     61  57  87 CALM      30.03S
WHARTON        MOSUNNY   58  56  93 CALM      30.01S
$$

THE UPPER TEXAS COAST

CITY           SKY/WX    TMP DP  RH WIND       PRES   REMARKS
ORANGE         SUNNY     58  56  94 CALM      30.04S FOG
PORT ARTHUR    CLEAR     59  58  96 SW32      30.02S
GALVESTON      MOCLDY    71  59  65 S10       30.03S
ANGLETON       PTCLDY    56  56 100 CALM      30.01S
BAY CITY       NOT AVBL
$$

TEXAS COASTAL BEND, RIO GRANDE PLAINS DEEP SOUTH TEXAS

CITY           SKY/WX    TMP DP  RH WIND       PRES   REMARKS
VICTORIA       CLEAR     60  58  92 S5        30.00F
BEEVILLE       FAIR      61  60  96 SE5       29.99S
ROCKPORT       CLEAR     71  64  78 S6        29.98S
PORT ARANSAS   SUNNY     71  66  85 S10       29.98R
PORT LAVACA    NOT AVBL
CORPUS CHRISTI PTCLDY    67  62  84 SE6       29.98S
KINGSVILLE NAS CLEAR     66  65  96 MISG      29.97F
COTULLA        PTCLDY    65  59  81 SE9       29.97F
LAREDO         CLOUDY    68  63  84 SE10      29.97F
BROWNSVILLE    CLOUDY    71  68  90 SE5       29.95F
PORT ISABEL    CLOUDY    72  67  84 SE7       29.95F
HEBBRONVILLE   NOT AVBL
MCALLEN        PTCLDY    72  66  81 E9        29.95F
WESLACO        NOT AVBL
FALFURRIAS     SUNNY     61  58  92 CALM      29.96F
EDINBURG       PTSUNNY   70  66  85 E8        29.96F
$$


USA.gov is the U.S. government's official web portal to all federal, state and local government web resources and services.